Volver al catálogo

STARLINK-37073

ActivoComunicacionesSSO
NORAD 68151·PAYLOAD·🇺🇸 United States

Lanzado Mar 13, 2026 desde Vandenberg Space Force Base

Loading…

Próximos Pases (próximas 24 horas)

TLE

ActualizadoSource: CelesTrak SupGP

Época: Sep 15, 2026, 03:53 UTC

1 68151C 26049K   26258.16229167 -.00052919  00000+0 -16429-2 0  2588
2 68151  97.2837 278.2191 0001210  91.0551 307.4711 15.33463472    16

Sigue STARLINK-37073 en tiempo real con AllMySat

Download on the App Store